HP3ICC-22 Weather Reports


time (UTC)temp
C
wind
direction
speed
KPH
gust
KPH
rain 1hr
cm
rain 24hr
cm
rain mn
cm
humidity
%
barometer
mb
20260504100305 8 2 6.4 11.3 0.00 0.00 0.00 86 1014.0
20260504100205 8 2 6.4 11.3 0.00 0.00 0.00 86 1014.0
20260504080301 8 4 6.4 8.0 0.00 0.00 0.00 79 1013.0
20260504080201 8 4 6.4 8.0 0.00 0.00 0.00 79 1013.0
20260504070300 9 360 4.8 9.7 0.00 0.00 0.00 89 1014.0
20260504070200 9 360 4.8 9.7 0.00 0.00 0.00 89 1014.0
20260504060158 9 356 4.8 11.3 0.00 0.00 0.00 79 1015.0
20260504050256 10 359 6.4 11.3 0.00 0.00 0.00 84 1015.0
20260504050156 10 359 6.4 11.3 0.00 0.00 0.00 84 1015.0
20260504044256 10 359 4.8 11.3 0.00 0.00 0.00 79 1015.0
20260504044156 10 359 4.8 11.3 0.00 0.00 0.00 79 1015.0
20260504042256 11 359 4.8 11.3 0.00 0.00 0.00 77 1015.0
20260504042155 11 359 4.8 11.3 0.00 0.00 0.00 77 1015.0
20260504040255 9 359 4.8 11.3 0.00 0.00 0.00 86 1015.0
20260504040155 9 359 4.8 11.3 0.00 0.00 0.00 86 1015.0
20260504034255 10 359 4.8 11.3 0.00 0.00 0.00 86 1015.0
20260504034154 10 359 4.8 11.3 0.00 0.00 0.00 86 1015.0
20260504032254 10 360 4.8 11.3 0.00 0.00 0.00 80 1014.0
20260504032154 10 360 4.8 11.3 0.00 0.00 0.00 80 1014.0
20260504030253 11 360 4.8 11.3 0.00 0.00 0.00 77 1015.0
20260504030154 11 360 4.8 11.3 0.00 0.00 0.00 77 1015.0
20260504024253 10 360 4.8 11.3 0.00 0.00 0.00 79 1015.0
20260504024153 10 360 4.8 11.3 0.00 0.00 0.00 79 1015.0
20260504022252 10 10 3.2 9.7 0.00 0.00 0.00 79 1013.0
20260504022152 10 10 3.2 9.7 0.00 0.00 0.00 79 1013.0
20260504020252 10 32 1.6 8.0 0.00 0.00 0.00 78 1014.0
20260504020152 10 32 1.6 8.0 0.00 0.00 0.00 78 1014.0
20260504014251 11 32 1.6 8.0 0.00 0.00 0.00 78 1014.0
20260504014151 11 32 1.6 8.0 0.00 0.00 0.00 78 1014.0
20260504012251 12 32 3.2 8.0 0.00 0.00 0.00 77 1012.0
20260504012151 12 32 3.2 8.0 0.00 0.00 0.00 77 1012.0
20260504010250 11 32 1.6 8.0 0.00 0.00 0.00 77 1014.0
20260504010150 11 32 1.6 8.0 0.00 0.00 0.00 77 1014.0
20260504004250 12 32 3.2 8.0 0.00 0.00 0.00 77 1013.0
20260504004149 12 32 3.2 8.0 0.00 0.00 0.00 77 1013.0
20260504002249 10 35 4.8 9.7 0.00 0.00 0.00 82 1012.0
20260504002149 10 35 4.8 9.7 0.00 0.00 0.00 82 1012.0
20260504000248 10 35 4.8 8.0 0.00 0.00 0.00 82 1013.0
20260504000148 10 35 4.8 8.0 0.00 0.00 0.00 82 1013.0
20260503234248 11 35 4.8 9.7 0.00 0.00 0.00 82 1013.0
20260503234148 11 35 4.8 9.7 0.00 0.00 0.00 82 1013.0
20260503232247 12 48 4.8 8.0 0.03 0.00 0.00 82 1011.0
20260503232147 12 48 4.8 8.0 0.03 0.00 0.00 82 1011.0
20260503230247 11 51 4.8 8.0 0.10 0.00 0.00 82 1012.0
20260503230147 11 51 4.8 8.0 0.10 0.00 0.00 82 1012.0
20260503224246 12 51 4.8 8.0 0.08 0.00 0.00 82 1012.0
20260503224146 12 51 4.8 8.0 0.08 0.00 0.00 82 1012.0
20260503222246 13 51 4.8 8.0 0.20 0.00 0.00 82 1011.0
20260503222145 13 51 4.8 8.0 0.20 0.00 0.00 82 1011.0
20260503220245 12 59 4.8 6.4 0.15 0.00 0.00 73 1012.0
20260503220145 12 59 4.8 6.4 0.15 0.00 0.00 73 1012.0
20260503214244 13 59 4.8 6.4 0.15 0.00 0.00 73 1012.0
20260503214144 13 59 4.8 6.4 0.15 0.00 0.00 73 1012.0
20260503212244 14 59 4.8 6.4 0.03 0.00 0.00 73 1011.0
20260503212144 14 59 4.8 6.4 0.03 0.00 0.00 73 1011.0
20260503210243 13 59 4.8 6.4 0.03 0.00 0.00 74 1012.0
20260503210143 13 59 4.8 6.4 0.03 0.00 0.00 74 1012.0
20260503204243 13 59 4.8 6.4 0.00 0.00 0.00 74 1012.0
20260503204143 13 59 4.8 6.4 0.00 0.00 0.00 74 1012.0
20260503202242 14 73 3.2 6.4 0.03 0.00 0.00 73 1011.0
20260503202142 14 73 3.2 6.4 0.03 0.00 0.00 73 1011.0
20260503200242 13 73 3.2 6.4 0.03 0.00 0.00 78 1012.0
20260503200141 13 73 3.2 6.4 0.03 0.00 0.00 78 1012.0
20260503194241 14 73 3.2 6.4 0.03 0.00 0.00 73 1012.0
20260503194141 14 73 3.2 6.4 0.03 0.00 0.00 73 1012.0
20260503192241 15 79 3.2 6.4 0.00 0.00 0.00 75 1012.0
20260503192140 15 79 3.2 6.4 0.00 0.00 0.00 75 1012.0
20260503190240 15 79 3.2 6.4 0.00 0.00 0.00 76 1013.0
20260503190140 15 79 3.2 6.4 0.00 0.00 0.00 76 1013.0
20260503184239 15 79 3.2 6.4 0.00 0.00 0.00 76 1013.0
20260503184139 15 79 3.2 6.4 0.00 0.00 0.00 76 1013.0
20260503182239 13 56 4.8 8.0 0.00 0.00 0.00 77 1013.0
20260503182139 13 56 4.8 8.0 0.00 0.00 0.00 77 1013.0
20260503180238 13 56 4.8 8.0 0.00 0.00 0.00 78 1014.0
20260503180138 13 56 4.8 8.0 0.00 0.00 0.00 78 1014.0
20260503174238 13 56 4.8 8.0 0.00 0.00 0.00 78 1014.0
20260503174138 13 56 4.8 8.0 0.00 0.00 0.00 78 1014.0
20260503172237 13 69 3.2 8.0 0.00 0.00 0.00 75 1014.0
20260503172137 13 69 3.2 8.0 0.00 0.00 0.00 75 1014.0
20260503170236 13 69 3.2 8.0 0.00 0.00 0.00 75 1015.0
20260503170136 13 69 3.2 8.0 0.00 0.00 0.00 75 1015.0
20260503160134 12 69 4.8 8.0 0.00 0.00 0.00 68 1015.0
20260503150233 12 65 3.2 6.4 0.00 0.00 0.00 71 1015.0
20260503150133 12 65 3.2 6.4 0.00 0.00 0.00 71 1015.0
20260503140231 12 30 3.2 8.0 0.00 0.00 0.00 79 1015.0
20260503140131 12 30 3.2 8.0 0.00 0.00 0.00 79 1015.0
20260503130229 11 6 4.8 9.7 0.00 0.00 0.00 90 1014.0
20260503130129 11 6 4.8 9.7 0.00 0.00 0.00 90 1014.0
20260503120127 8 356 6.4 8.0 0.00 0.00 0.00 83 1014.0
20260503110226 9 3 4.8 6.4 0.00 0.00 0.00 86 1014.0
20260503110126 9 3 4.8 6.4 0.00 0.00 0.00 86 1014.0